HG5OJG-6 Weather Reports


Display with metric or nautical units.
time (UTC)temp
F
wind
direction
speed
MPH
gust
MPH
rain 1hr
in
rain 24hr
in
rain mn
in
humidity
%
barometer
mb
20260504204557 59 181 2.0 4.0 0.00 0.00 0.00 42 1014.6
20260504203719 60 204 1.0 3.0 0.00 0.00 0.00 41 1014.6
20260504202639 60 198 1.0 2.0 0.00 0.00 0.00 41 1014.4
20260504201542 61 222 1.0 3.0 0.00 0.00 0.00 40 1014.5
20260504200617 60 233 2.0 3.0 0.00 0.00 0.00 41 1014.6
20260504195517 61 241 1.0 2.0 0.00 0.00 0.00 40 1014.5
20260504194521 62 226 1.0 2.0 0.00 0.00 0.00 39 1014.6
20260504193535 62 220 1.0 2.0 0.00 0.00 0.00 38 1014.5
20260504192602 63 226 2.0 3.0 0.00 0.00 0.00 38 1014.5
20260504191604 63 219 2.0 3.0 0.00 0.00 0.00 37 1014.6
20260504190528 64 214 2.0 4.0 0.00 0.00 0.00 36 1014.5
20260504185552 65 200 2.0 3.0 0.00 0.00 0.00 35 1014.3
20260504184526 65 208 2.0 4.0 0.00 0.00 0.00 34 1014.3
20260504183550 66 207 2.0 4.0 0.00 0.00 0.00 33 1014.3
20260504182534 68 205 2.0 4.0 0.00 0.00 0.00 32 1014.2
20260504181538 69 198 2.0 3.0 0.00 0.00 0.00 29 1014.3
20260504180543 70 201 2.0 4.0 0.00 0.00 0.00 28 1014.2
20260504175617 71 197 2.0 6.0 0.00 0.00 0.00 27 1014.1
20260504174540 72 184 2.0 4.0 0.00 0.00 0.00 26 1014.2
20260504173545 73 177 3.0 7.0 0.00 0.00 0.00 26 1014.2
20260504172546 74 159 4.0 8.0 0.00 0.00 0.00 25 1014.0
20260504171550 74 179 4.0 9.0 0.00 0.00 0.00 25 1014.0
20260504170604 75 174 5.0 9.0 0.00 0.00 0.00 25 1014.1
20260504150605 78 188 5.0 15.0 0.00 0.00 0.00 23 1014.5
20260504140638 80 214 6.0 11.0 0.00 0.00 0.00 23 1015.1
20260504130538 81 175 5.0 11.0 0.00 0.00 0.00 22 1015.7
20260504110544 79 147 6.0 16.0 0.00 0.00 0.00 26 1017.1
20260504100611 77 174 8.0 17.0 0.00 0.00 0.00 27 1017.8
20260504081605 72 202 6.0 16.0 0.00 0.00 0.00 32 1018.8
20260504080629 71 215 5.0 13.0 0.00 0.00 0.00 33 1018.9
20260504050617 49 124 0.0 1.0 0.00 0.00 0.00 73 1018.7
20260504045602 46 122 1.0 2.0 0.00 0.00 0.00 74 1018.6
20260504044535 45 105 1.0 2.0 0.00 0.00 0.00 74 1018.4
20260504043559 45 99 0.0 2.0 0.00 0.00 0.00 73 1018.4
20260504042543 44 95 1.0 2.0 0.00 0.00 0.00 73 1018.4
20260504041626 44 323 0.0 1.0 0.00 0.00 0.00 72 1018.3
20260504040630 44 321 0.0 1.0 0.00 0.00 0.00 72 1018.3
20260504035604 44 321 1.0 2.0 0.00 0.00 0.00 72 1018.2
20260504034600 44 320 0.0 2.0 0.00 0.00 0.00 71 1018.1
20260504033544 44 290 0.0 2.0 0.00 0.00 0.00 71 1018.1
20260504032547 44 0.0 0.0 0.00 0.00 0.00 71 1018.0
20260504031551 44 272 0.0 1.0 0.00 0.00 0.00 70 1018.0
20260504030555 45 0.0 1.0 0.00 0.00 0.00 70 1018.1
20260504025549 45 272 0.0 1.0 0.00 0.00 0.00 70 1018.1
20260504024553 45 0.0 0.0 0.00 0.00 0.00 69 1018.0
20260504023557 45 0.0 1.0 0.00 0.00 0.00 68 1018.0
20260504022601 46 0.0 0.0 0.00 0.00 0.00 68 1017.9
20260504021608 46 0.0 0.0 0.00 0.00 0.00 67 1017.9
20260504020620 46 0.0 0.0 0.00 0.00 0.00 67 1018.1
20260504015645 46 272 0.0 1.0 0.00 0.00 0.00 66 1018.1
20260504014628 46 0.0 0.0 0.00 0.00 0.00 66 1018.0
20260504013612 47 0.0 1.0 0.00 0.00 0.00 65 1017.9
20260504012636 47 0.0 1.0 0.00 0.00 0.00 65 1018.0
20260504011611 47 0.0 1.0 0.00 0.00 0.00 64 1018.2
20260504010633 47 272 0.0 1.0 0.00 0.00 0.00 64 1018.1
20260504005618 48 272 0.0 2.0 0.00 0.00 0.00 63 1018.3
20260504004633 48 216 1.0 2.0 0.00 0.00 0.00 63 1018.0
20260504003636 48 0.0 0.0 0.00 0.00 0.00 62 1018.0
20260504002515 48 103 0.0 1.0 0.00 0.00 0.00 61 1018.1
20260504001635 49 168 0.0 1.0 0.00 0.00 0.00 60 1018.1
20260504000721 49 0.0 0.0 0.00 0.00 0.00 60 1018.1
20260503235537 50 0.0 0.0 0.00 0.00 0.00 59 1018.1
20260503234542 50 0.0 0.0 0.00 0.00 0.00 58 1018.1
20260503233525 51 251 0.0 1.0 0.00 0.00 0.00 57 1018.1
20260503232539 51 0.0 0.0 0.00 0.00 0.00 56 1018.1
20260503231544 52 250 0.0 2.0 0.00 0.00 0.00 55 1018.1
20260503230527 52 259 2.0 4.0 0.00 0.00 0.00 56 1018.2
20260503225530 52 262 2.0 3.0 0.00 0.00 0.00 55 1018.3
20260503224535 52 245 1.0 2.0 0.00 0.00 0.00 54 1018.4
20260503223528 53 220 1.0 3.0 0.00 0.00 0.00 53 1018.3
20260503222542 53 213 1.0 2.0 0.00 0.00 0.00 52 1018.3
20260503221527 54 203 1.0 3.0 0.00 0.00 0.00 52 1018.3
20260503220630 54 195 1.0 2.0 0.00 0.00 0.00 51 1018.4
20260503215615 55 189 2.0 3.0 0.00 0.00 0.00 51 1018.5
20260503214538 54 177 3.0 8.0 0.00 0.00 0.00 52 1018.4
20260503213532 53 159 4.0 10.0 0.00 0.00 0.00 54 1018.4
20260503212537 53 166 1.0 3.0 0.00 0.00 0.00 54 1018.3
20260503211641 53 170 1.0 2.0 0.00 0.00 0.00 54 1018.3
20260503210625 53 157 1.0 2.0 0.00 0.00 0.00 53 1018.4
20260503205549 54 169 0.0 2.0 0.00 0.00 0.00 53 1018.4